Location: Baia de Cri?
(46.1667°N, 22.7167°E)
Time: 22:03:43
(UTC+00:00)

Cosmos 1470 Rocket - Pass Details

Date: 15 January 2026
Orbit: 597 x 626 km, 82.5° (Epoch: 10 February)

Event Time Altitude Azimuth Distance (km) Brightness Sun altitude
Rises 05:04:50 0° 178° (S) 2,843 7.3 -10.7°
Reaches altitude 10° 05:07:03 10° 174° (S) 1,941 6.5 -10.3°
Maximum altitude 05:11:16 60° 95° (E) 693 4.2 -9.7°
Drops below altitude 10° 05:15:30 10° 16° (NNE) 1,948 6.1 -9.0°
Sets 05:17:44 0° 13° (NNE) 2,854 6.9 -8.6°
